Current weather by "City, St" or "zip code"  
 

Current Conditions: Watertown, Watertown International Airport, NY

Overcast


42.0 F

Last Updated on Oct 24 2020, 9:56 pm EDT
Humidity: 68%
Wind Speed: E 4.6 mph
Barometer 30.18 in
Dewpoint: 32.0 F
Visibility: 10.00 mi
Precip: --
Heat Index: NA
Wind Chill: 39 F
Current conditions at:

Watertown, Watertown International Airport, NY (KART)

Lat: 43.99194 Lon: 76.02167

Local Radar Image active severe weather and emergency alerts image image weather storm and storm spotter reports image weather observation monitoring service image
Local
Radar
Active
Alerts
Storm Reports Obs
Monitoring

Sign-up For Email & Text Message Weather Alert Notification Services



Advertise Here

Observation History for Watertown, Watertown International Airport, NY


Time Wind
(mph)
Vis
(mi)
Weather Precip (in) Temperature (F) Relative
Humidity
Wind
Chill
(F)
Heat
Index
(F)
Pressure
Air Dwpt altimeter
(in)
sea level
(mb)
Rmks
9:56 pm EDT E 4.6 10.00 Overcast -- 42.0 32.0 68% 39 NA 30.18 1022.1
8:56 pm EDT NE 8.1 10.00 Overcast -- 43.0 30.9 63% 38 NA 30.18 1022.1
7:56 pm EDT NE 6.9 10.00 Overcast -- 44.0 33.1 65% 40 NA 30.17 1021.7
6:56 pm EDT N 5.8 10.00 Overcast -- 45.0 32.0 61% 42 NA 30.14 1020.8
5:56 pm EDT N 5.8 10.00 Overcast -- 45.0 30.9 58% 42 NA 30.12 1020.2
4:56 pm EDT N 6.9 10.00 Mostly Cloudy -- 47.0 32.0 56% 44 NA 30.10 1019.5
3:56 pm EDT N 8.1 10.00 Mostly Cloudy -- 48.0 33.1 56% 44 NA 30.10 1019.1
2:56 pm EDT N 10.4 10.00 Mostly Cloudy -- 49.0 33.1 55% 45 NA 30.09 1018.9
1:56 pm EDT N 11.5 10.00 Mostly Cloudy -- 47.0 34.0 61% 42 NA 30.09 1018.8
12:56 pm EDT N 11.5 10.00 Mostly Cloudy -- 46.0 34.0 63% 41 NA 30.09 1018.9
11:56 am EDT N 10.4 10.00 Overcast -- 45.0 35.1 68% 40 NA 30.10 1019.0
10:56 am EDT N 9.2 10.00 Overcast -- 45.0 36.0 71% 40 NA 30.09 1018.7
9:56 am EDT N 11.5 9.00 Overcast Trace 43.0 39.9 89% 37 NA 30.08 1018.4
8:56 am EDT NW 13.8 10.00 Overcast Trace 46.0 42.1 86% 40 NA 30.04 1016.9
7:56 am EDT W 10.4 10.00 Overcast Trace 48.0 43.0 83% 43 NA 29.99 1015.2
6:56 am EDT W 11.5 9.00 Light Rain 00.04 49.0 46.0 90% 44 NA 29.96 1014.2
5:56 am EDT W 13.8 7.00 Light Rain 00.10 50.0 48.0 93% 45 NA 29.91 1012.6
4:56 am EDT W 15.0 10.00 Light Rain 00.04 54.0 51.1 90% 50 NA 29.85 1010.6
3:56 am EDT W 13.8 G 23.0 3.00 Light Rain Fog/Mist 00.01 62.0 59.0 90% 60 NA 29.79 1008.4
2:56 am EDT SW 12.7 G 23.0 10.00 Overcast Trace 63.0 59.0 87% 62 NA 29.79 1008.2
1:56 am EDT SW 9.2 G 18.4 10.00 Mostly Cloudy 00.09 63.0 60.1 90% 62 NA 29.80 1008.6
12:56 am EDT SW 16.1 G 26.5 10.00 Overcast -- 68.0 57.0 68% NA NA 29.81 1009.0
11:56 pm EDT S 12.7 G 23.0 10.00 Mostly Cloudy -- 69.0 57.0 66% NA NA 29.80 1008.5

Regional Weather Observation


Fort Drum / Wheeler-Sack U. S. Army Airfield, NY (KGTB)

Overcast
40.0 F

Fulton, Oswego County Airport, NY (KFZY)

Light Rain
41.0 F

Syracuse, Syracuse Hancock International Airport, NY (KSYR)

Light Drizzle
44.0 F

Griffiss Air Force Base / Rome, NY (KRME)

Mostly Cloudy
38.0 F

Massena, Massena International-Richards Field, NY (KMSS)

Overcast
40.0 F

Rochester, Greater Rochester International Airport, NY (KROC)

Overcast
43.0 F